Track ESSA 4 (TOS-B) now! 10-day predictions ESSA 4 (TOS-B) is classified as:
1 2657U 67006A 19054.14278016 -.00000057 00000-0 -42642-4 0 9993 2 2657 102.0219 104.5733 0073531 131.0783 296.5822 12.69844876413942